{"data":{"norad_id":50572,"intl_designator":"2021-134A","name":"TIANHUI 4A","alt_names":[],"object_type":"PAYLOAD","status":"ACTIVE","operator":null,"country":"PRC","launch_date":"2021-12-29","launch_site_code":"JSC","launch_vehicle":null,"mission":null,"orbit_class":"UNKNOWN","rcs_meters":null,"size_class":null,"mass_kg":null,"dimensions":null,"purposes":[],"wikipedia_slug":null,"has_3d_model":false,"image_url":null,"decayed_at":null,"tle_current":{"epoch":"2026-09-20T23:00:15.939648Z","epoch_age_seconds":70770,"freshness":"FRESH","line1":"1 50572U 21134A   26263.95851782  .00004302  00000+0  82612-4 0  9995","line2":"2 50572  88.9686 309.0820 0010550  60.5425 299.6887 15.47624297264672","mean_motion":15.47624297,"eccentricity":0.001055,"inclination_deg":88.9686,"raan_deg":309.082,"arg_perigee_deg":60.5425,"mean_anomaly_deg":299.6887,"bstar":8.2612e-5,"rev_number":26467,"period_min":93.045838243259,"perigee_km":416.50207825749,"apogee_km":430.85390789288,"semimajor_km":6801.8149930752,"source":"CELESTRAK","updated_at":"2026-09-21T09:00:08.210830Z"}}}